Weather History for Monroe, MI

Change the Weather History Date:

Thursday, January 31, 2013

  Actual Average Record
Temperature  
Mean Temperature 27 °F -  
Max Temperature 35 °F 32 °F 56 °F (1974)
Min Temperature 19 °F 19 °F -5 °F (1971)
Degree Days  
Heating Degree Days 38    
Moisture  
Dew Point 17 °F    
Average Humidity 71    
Maximum Humidity 86    
Minimum Humidity 59    
Precipitation  
Precipitation 0.00 in - - ()
Sea Level Pressure  
Sea Level Pressure 29.64 in    
Wind  
Wind Speed 23 mph (West)    
Max Wind Speed 29 mph    
Max Gust Speed 41 mph    
Visibility 8 miles    
Events Snow    
Averages and records for this station are not official NWS values.
T = Trace of Precipitation, MM = Missing Value Source: NWS Daily Summary

Daily Weather History Graph

Daily Weather History Graph

Search for Another Location

Airport:

Trip Planner

Search our weather history database for the weather conditions in past years. The results will help you decide how hot, cold, wet, or windy it might be!

Date:

Astronomy

Jan. 31, 2013 Rise Set
Actual Time 7:47 AM EST 5:47 PM EST
Civil Twilight 7:17 AM EST 6:17 PM EST
Nautical Twilight 6:44 AM EST 6:50 PM EST
Astronomical Twilight 6:11 AM EST 7:23 PM EST
Moon 10:55 PM EST (1/31) 9:40 AM EST (1/31)
Length of Visible Light 10h 59m
Length of Day
10h 00m
Waning Gibbous, 80% of the Moon is Illuminated
Jan 31
Waning Gibbous
Feb 3
Last Quarter
Feb 10
New
Feb 17
First Quarter
Feb 25
Full

Hourly Weather History & Observations

Time (EST) Temp. Windchill Dew Point Humidity Pressure Visibility Wind Dir Wind Speed Gust Speed Precip Events Conditions
12:11 AM 35.6 °F 23.4 °F 26.6 °F 70% 29.28 in 10.0 mi West 25.3 mph 36.8 mph N/A   Overcast
12:31 AM 33.8 °F 20.8 °F 26.6 °F 75% 29.30 in 10.0 mi West 26.5 mph 41.4 mph N/A   Overcast
12:51 AM 33.8 °F 21.0 °F 24.8 °F 70% 29.31 in 10.0 mi West 25.3 mph 36.8 mph N/A   Overcast
1:12 AM 33.8 °F 21.0 °F 23.0 °F 65% 29.33 in 10.0 mi West 25.3 mph 39.1 mph N/A   Overcast
1:32 AM 33.8 °F 20.8 °F 23.0 °F 65% 29.34 in 10.0 mi West 26.5 mph 36.8 mph N/A   Overcast
1:54 AM 32.0 °F 18.6 °F 23.0 °F 69% 29.37 in 10.0 mi West 25.3 mph 32.2 mph N/A   Overcast
2:14 AM 32.0 °F 19.2 °F 21.2 °F 64% 29.38 in 10.0 mi West 23.0 mph 31.1 mph N/A   Overcast
2:34 AM 30.2 °F 16.8 °F 21.2 °F 69% 29.40 in 10.0 mi West 23.0 mph 34.5 mph N/A   Overcast
2:54 AM 30.2 °F 16.8 °F 21.2 °F 69% 29.41 in 10.0 mi West 23.0 mph 34.5 mph N/A Snow Light Snow
3:14 AM 30.2 °F 17.8 °F 24.8 °F 80% 29.42 in 2.5 mi West 19.6 mph 28.8 mph N/A Snow Light Snow
3:34 AM 30.2 °F 17.8 °F 23.0 °F 75% 29.43 in 10.0 mi West 19.6 mph 26.5 mph N/A   Overcast
3:55 AM 30.2 °F 16.2 °F 23.0 °F 75% 29.44 in 7.0 mi West 25.3 mph 33.4 mph N/A Snow Light Snow
4:12 AM 28.4 °F 13.8 °F 24.8 °F 86% 29.45 in 7.0 mi West 25.3 mph 29.9 mph N/A Snow Light Snow
4:32 AM 26.6 °F 11.1 °F 23.0 °F 86% 29.47 in 0.5 mi West 26.5 mph 38.0 mph N/A Snow Light Snow
4:52 AM 26.6 °F 11.1 °F 21.2 °F 80% 29.48 in 5.0 mi West 26.5 mph 34.5 mph N/A Snow Light Snow
5:12 AM 26.6 °F 12.7 °F 23.0 °F 86% 29.49 in 5.0 mi West 20.7 mph 28.8 mph N/A Snow Light Snow
5:32 AM 28.4 °F 15.8 °F 21.2 °F 74% 29.50 in 10.0 mi West 18.4 mph 27.6 mph N/A   Overcast
5:52 AM 26.6 °F 11.7 °F 21.2 °F 80% 29.51 in 5.0 mi West 24.2 mph 29.9 mph N/A Snow Light Snow
6:12 AM 26.6 °F 12.4 °F 19.4 °F 74% 29.52 in 10.0 mi West 21.9 mph 35.7 mph N/A   Overcast
6:32 AM 26.6 °F 12.7 °F 17.6 °F 69% 29.53 in 10.0 mi West 20.7 mph 35.7 mph N/A   Overcast
6:52 AM 26.6 °F 11.1 °F 17.6 °F 69% 29.54 in 10.0 mi West 26.5 mph 33.4 mph N/A   Overcast
7:13 AM 26.6 °F 11.4 °F 17.6 °F 69% 29.56 in 10.0 mi West 25.3 mph 39.1 mph N/A   Overcast
7:33 AM 26.6 °F 11.1 °F 17.6 °F 69% 29.57 in 10.0 mi West 26.5 mph 35.7 mph N/A   Overcast
7:53 AM 26.6 °F 11.4 °F 15.8 °F 64% 29.58 in 10.0 mi West 25.3 mph 33.4 mph N/A   Overcast
8:13 AM 26.6 °F 13.4 °F 15.8 °F 64% 29.59 in 10.0 mi WSW 18.4 mph 28.8 mph N/A   Overcast
8:33 AM 26.6 °F 13.1 °F 15.8 °F 64% 29.60 in 10.0 mi West 19.6 mph 33.4 mph N/A   Overcast
8:53 AM 26.6 °F 13.4 °F 17.6 °F 69% 29.61 in 10.0 mi WSW 18.4 mph 28.8 mph N/A   Overcast
9:13 AM 24.8 °F 11.1 °F 21.2 °F 86% 29.63 in 0.2 mi WSW 18.4 mph 27.6 mph N/A Snow Snow
9:34 AM 24.8 °F 11.5 °F 21.2 °F 86% 29.63 in 4.0 mi WSW 17.3 mph 21.9 mph N/A Snow Light Snow
9:54 AM 24.8 °F 10.0 °F 19.4 °F 80% 29.64 in 0.2 mi WSW 21.9 mph 26.5 mph N/A Snow Light Snow
10:34 AM 23.0 °F 7.6 °F 19.4 °F 86% 29.67 in 0.2 mi WSW 21.9 mph 27.6 mph N/A Snow Light Snow
10:54 AM 23.0 °F 6.0 °F 17.6 °F 80% 29.68 in 1.5 mi West 27.6 mph 33.4 mph N/A Snow Light Snow
11:35 AM 24.8 °F 8.1 °F 15.8 °F 69% 29.69 in 10.0 mi West 28.8 mph 34.5 mph N/A   Overcast
12:00 PM 24.8 °F 8.7 °F 14.0 °F 64% 29.70 in 10.0 mi WSW 26.5 mph 31.1 mph N/A   Overcast
12:15 PM 24.8 °F 10.0 °F 15.8 °F 69% 29.70 in 10.0 mi West 21.9 mph 31.1 mph N/A   Overcast
12:35 PM 24.8 °F 9.3 °F 15.8 °F 69% 29.71 in 5.0 mi West 24.2 mph 33.4 mph N/A Snow Light Snow
12:55 PM 24.8 °F 10.0 °F 17.6 °F 74% 29.71 in 3.0 mi WSW 21.9 mph 25.3 mph N/A Snow Light Snow
1:15 PM 24.8 °F 10.3 °F 15.8 °F 69% 29.70 in 7.0 mi WSW 20.7 mph - N/A Snow Light Snow
1:35 PM 24.8 °F 11.9 °F 17.6 °F 74% 29.71 in 7.0 mi WSW 16.1 mph 28.8 mph N/A Snow Light Snow
1:55 PM 24.8 °F 9.6 °F 17.6 °F 74% 29.72 in 3.0 mi West 23.0 mph 26.5 mph N/A Snow Light Snow
2:15 PM 24.8 °F 12.4 °F 17.6 °F 74% 29.72 in 5.0 mi West 15.0 mph 21.9 mph N/A Snow Light Snow
2:35 PM 24.8 °F 11.1 °F 15.8 °F 69% 29.72 in 10.0 mi West 18.4 mph 25.3 mph N/A   Overcast
2:55 PM 24.8 °F 10.7 °F 15.8 °F 69% 29.73 in 10.0 mi West 19.6 mph 27.6 mph N/A   Overcast
3:16 PM 24.8 °F 10.0 °F 12.2 °F 59% 29.73 in 10.0 mi WSW 21.9 mph 29.9 mph N/A   Overcast
3:36 PM 24.8 °F 10.0 °F 12.2 °F 59% 29.74 in 10.0 mi West 21.9 mph 35.7 mph N/A   Overcast
3:51 PM 24.8 °F 10.0 °F 12.2 °F 59% 29.74 in 10.0 mi West 21.9 mph 28.8 mph N/A   Overcast
4:11 PM 24.8 °F 10.3 °F 12.2 °F 59% 29.75 in 10.0 mi West 20.7 mph 28.8 mph N/A   Overcast
4:31 PM 24.8 °F 11.5 °F 12.2 °F 59% 29.75 in 10.0 mi West 17.3 mph 25.3 mph N/A   Overcast
4:51 PM 23.0 °F 7.6 °F 15.8 °F 74% 29.76 in 7.0 mi West 21.9 mph 25.3 mph N/A Snow Light Snow
5:11 PM 23.0 °F 8.7 °F 15.8 °F 74% 29.76 in 10.0 mi West 18.4 mph 25.3 mph N/A   Overcast
5:31 PM 23.0 °F 9.6 °F 15.8 °F 74% 29.77 in 10.0 mi West 16.1 mph - N/A   Overcast
6:12 PM 21.2 °F 6.0 °F 10.4 °F 63% 29.78 in 10.0 mi West 19.6 mph 26.5 mph N/A   Overcast
6:32 PM 21.2 °F 4.5 °F 10.4 °F 63% 29.79 in 10.0 mi West 24.2 mph 29.9 mph N/A   Overcast
6:52 PM 21.2 °F 6.4 °F 12.2 °F 68% 29.81 in 10.0 mi West 18.4 mph 23.0 mph N/A   Overcast
7:12 PM 21.2 °F 6.4 °F 10.4 °F 63% 29.82 in 10.0 mi West 18.4 mph 28.8 mph N/A   Overcast
7:32 PM 21.2 °F 7.3 °F 12.2 °F 68% 29.82 in 10.0 mi West 16.1 mph 27.6 mph N/A   Overcast
7:52 PM 21.2 °F 5.6 °F 12.2 °F 68% 29.84 in 10.0 mi West 20.7 mph 26.5 mph N/A   Overcast
8:12 PM 21.2 °F 5.6 °F 12.2 °F 68% 29.84 in 10.0 mi West 20.7 mph 25.3 mph N/A   Overcast
8:32 PM 19.4 °F 5.0 °F 12.2 °F 74% 29.85 in 10.0 mi WSW 16.1 mph - N/A   Overcast
9:12 PM 19.4 °F 4.5 °F 12.2 °F 74% 29.85 in 10.0 mi West 17.3 mph 26.5 mph N/A   Overcast
9:33 PM 19.4 °F 3.2 °F 10.4 °F 68% 29.86 in 10.0 mi West 20.7 mph 26.5 mph N/A   Overcast
9:53 PM 19.4 °F 4.5 °F 12.2 °F 74% 29.86 in 10.0 mi West 17.3 mph - N/A   Overcast
10:13 PM 19.4 °F 4.1 °F 12.2 °F 74% 29.87 in 10.0 mi West 18.4 mph 21.9 mph N/A   Overcast
10:33 PM 19.4 °F 4.1 °F 12.2 °F 74% 29.87 in 10.0 mi West 18.4 mph 23.0 mph N/A   Overcast
10:53 PM 19.4 °F 6.6 °F 12.2 °F 74% 29.87 in 10.0 mi West 12.7 mph - N/A   Overcast
11:13 PM 19.4 °F 4.5 °F 12.2 °F 74% 29.87 in 10.0 mi West 17.3 mph 23.0 mph N/A   Overcast
11:33 PM 19.4 °F 6.6 °F 12.2 °F 74% 29.87 in 10.0 mi West 12.7 mph - N/A   Overcast
11:53 PM 19.4 °F 6.6 °F 12.2 °F 74% 29.87 in 10.0 mi West 12.7 mph - N/A   Overcast